Zacatecas Airport, Mexico

12:34 PM CDT on July 29, 2016 (GMT -0500)
Gen Leobardo C Ruiz International

Weather History for MMZC - November, 2011

Change the Weather History Date:

Saturday, November 5, 2011

  Actual Average Record
Temperature  
Mean Temperature 60 °F -  
Max Temperature 75 °F 72 °F 78 °F (1996)
Min Temperature 44 °F 38 °F 26 °F (2010)
Degree Days  
Heating Degree Days 6    
Growing Degree Days 10 (Base 50)    
Moisture  
Dew Point 34 °F    
Average Humidity 42    
Maximum Humidity 66    
Minimum Humidity 22    
Precipitation  
Precipitation 0.00 in - - ()
Sea Level Pressure  
Sea Level Pressure 30.24 in    
Wind  
Wind Speed 9 mph ()    
Max Wind Speed 24 mph    
Max Gust Speed 29 mph    
Visibility 10.0 miles    
Events      
Averages and records for this station are not official NWS values.
T = Trace of Precipitation, MM = Missing Value Source: Averaged Metar Reports

Daily Weather History Graph

Daily Weather History Graph

Search for Another Location

Airport or City:

Trip Planner

Search our weather history database for the weather conditions in past years. The results will help you decide how hot, cold, wet, or windy it might be!

Date:

Astronomy

Nov. 05, 2011 Rise Set
Actual Time 6:57 AM CST 6:10 PM CST
Civil Twilight 6:34 AM CST 6:33 PM CST
Nautical Twilight 6:07 AM CST 7:00 PM CST
Astronomical Twilight 5:41 AM CST 7:27 PM CST
Moon 3:03 PM CST (11/5) 2:39 AM CST (11/5)
Length of Visible Light 11h 59m
Length of Day
11h 12m
Waxing Gibbous, 78% of the Moon is Illuminated
Nov 5
Waxing Gibbous
Nov 10
Full
Nov 18
Last Quarter
Nov 25
New
Dec 2
First Quarter

Hourly Weather History & Observations

Time (CST) Temp. Windchill Dew Point Humidity Pressure Visibility Wind Dir Wind Speed Gust Speed Precip Events Conditions
12:44 AM 51.8 °F - 32.0 °F 47% 30.28 in 10.0 mi South 8.1 mph - N/A   Partly Cloudy
1:51 AM 50.0 °F - 33.8 °F 54% 30.26 in 10.0 mi South 6.9 mph - N/A   Partly Cloudy
3:20 AM 44.6 °F 43.1 °F 32.0 °F 61% 30.24 in 10.0 mi SW 3.5 mph - N/A   Partly Cloudy
4:15 AM 44.6 °F 41.4 °F 33.8 °F 66% 30.23 in 10.0 mi South 5.8 mph - N/A   Partly Cloudy
5:27 AM 46.4 °F 41.9 °F 35.6 °F 66% 30.24 in 10.0 mi South 9.2 mph - N/A   Mostly Cloudy
5:48 AM 44.6 °F 41.4 °F 33.8 °F 66% 30.24 in 10.0 mi South 5.8 mph - N/A   Mostly Cloudy
6:47 AM 46.4 °F 43.5 °F 33.8 °F 62% 30.26 in 10.0 mi South 5.8 mph - N/A   Scattered Clouds
7:43 AM 48.2 °F - 35.6 °F 62% 30.28 in 10.0 mi SSW 8.1 mph - N/A   Clear
8:46 AM 59.0 °F - 39.2 °F 48% 30.29 in 10.0 mi SSW 6.9 mph - N/A   Clear
9:40 AM 64.4 °F - 39.2 °F 40% 30.29 in 10.0 mi South 10.4 mph - N/A   Clear
10:52 AM 71.6 °F - 37.4 °F 29% 30.29 in 10.0 mi West 11.5 mph 23.0 mph N/A   Partly Cloudy
11:54 AM 71.6 °F - 35.6 °F 27% 30.28 in 10.0 mi SW 19.6 mph - N/A   Mostly Cloudy
12:43 PM 71.6 °F - 33.8 °F 25% 30.24 in 10.0 mi WSW 17.3 mph 28.8 mph N/A   Mostly Cloudy
1:43 PM 75.2 °F - 33.8 °F 22% 30.21 in 10.0 mi SW 23.0 mph - N/A   Mostly Cloudy
3:41 PM 73.4 °F - 32.0 °F 22% 30.16 in 10.0 mi SW 24.2 mph - N/A   Mostly Cloudy
4:41 PM 73.4 °F - 33.8 °F 23% 30.16 in 10.0 mi SW 18.4 mph - N/A   Mostly Cloudy
5:41 PM 69.8 °F - 32.0 °F 25% 30.17 in 10.0 mi WSW 20.7 mph - N/A   Mostly Cloudy
6:41 PM 66.2 °F - 32.0 °F 28% 30.19 in 10.0 mi SW 12.7 mph - N/A   Mostly Cloudy
7:41 PM 60.8 °F - 32.0 °F 34% 30.21 in 10.0 mi West 6.9 mph - N/A   Mostly Cloudy
8:41 PM 62.6 °F - 33.8 °F 34% 30.25 in 10.0 mi West 9.2 mph - N/A   Mostly Cloudy
10:44 PM 57.2 °F - 33.8 °F 41% 30.26 in 10.0 mi SW 9.2 mph - N/A   Mostly Cloudy
11:41 PM 57.2 °F - 33.8 °F 41% 30.26 in 10.0 mi West 10.4 mph - N/A   Mostly Cloudy